[[{"header":{"parameterUnit":"m.s-1","parameterCategory":1,"la1":30.2991,"la2":30.254,"lo1":-89.0895,"lo2":-89.0444,"dy":0.0017,"dx":0.0017,"nx":28,"ny":28,"refTime":"2025-08-25T21:00:00:Z","depth":0,"parameterNumber":2,"parameterNumberName":"U-component_of_WINDS"},"data":[0,0,0,0,0,0,0,0,0,0,0,0,0,0,0,0,0,0,0,0,0,0,0,0,0,0,0,0,0,0,0,0,0,0,0,0,0,0,0,0,0,0,0,0,0,0,0,0,0,0,0,0,0,0,0,0,0,0,-3.0363,-3.0362,0,-3.0314,-3.0314,-3.0313,-3.02,-3.0198,-3.0196,-3.0194,-3.0147,-3.0148,-3.0149,0,0,0,0,0,0,0,0,0,0,0,0,0,-3.0363,-3.0363,-3.0363,-3.0362,-3.0362,-3.0314,-3.0314,-3.0313,-3.0201,-3.0198,-3.0195,-3.0193,-3.0147,-3.0148,-3.0149,0,0,0,0,0,0,0,0,0,0,0,0,0,-3.0343,-3.0363,-3.0363,-3.03,-3.0294,-3.0314,-3.0314,-3.0313,-3.0201,-3.0198,-3.0194,-3.0191,-3.0147,-3.0148,-3.0149,-3.0228,0,0,-3.0154,-3.0154,0,0,0,0,0,0,0,0,-3.0345,-3.0344,-3.031,-3.0304,-3.0297,-3.026,-3.0296,-3.0285,-3.0202,-3.0237,-3.0194,-3.0189,-3.0188,-3.0186,-3.0184,-3.0226,-3.0224,-3.0154,-3.0155,-3.0155,-3.0156,0,0,0,0,0,0,0,-3.0346,-3.0345,-3.0344,-3.0309,-3.0302,-3.0275,-3.0269,-3.0294,-3.0233,-3.0233,-3.0225,-3.0221,-3.0184,-3.0183,-3.0182,-3.0224,-3.0154,-3.0155,-3.0156,-3.0157,-3.033,-3.0334,0,0,0,0,0,0,-3.0356,-3.0347,-3.0345,-3.0342,-3.0313,-3.0278,-3.0271,-3.0275,-3.0232,-3.0222,-3.0224,-3.0216,-3.0183,-3.0181,-3.018,-3.0271,-3.0155,-3.0157,-3.0158,-3.0326,-3.0331,-3.0335,0,0,0,0,0,0,-3.0356,-3.0357,-3.0347,-3.0342,-3.0339,-3.0282,-3.0288,-3.0276,-3.0276,-3.0225,-3.0214,-3.0234,-3.018,-3.0178,-3.0217,-3.0268,-3.0157,-3.0159,-3.0322,-3.0328,-3.0333,-3.0454,0,0,0,0,0,0,-3.0357,-3.0358,-3.0386,-3.0344,-3.034,-3.0384,-3.0291,-3.0278,-3.0278,-3.0267,-3.0231,-3.0222,-3.0177,-3.0216,-3.0219,-3.0268,-3.016,-3.0317,-3.0324,-3.0331,-3.0445,-3.0463,-3.0478,0,0,0,0,0,-3.0357,-3.0422,-3.0388,-3.0389,-3.0374,-3.0387,-3.0385,-3.033,-3.0282,-3.0311,-3.0279,-3.0223,-3.0262,-3.0221,-3.0223,-3.0274,-3.0314,-3.0322,-3.0331,-3.0438,-3.0459,-3.0478,0,0,0,0,0,0,-3.0473,-3.0416,-3.0377,-3.043,-3.0415,-3.0368,-3.0403,-3.0355,-3.0353,-3.0343,-3.0276,-3.027,-3.0319,-3.0299,-3.0255,-3.0349,-3.0279,-3.0288,-3.036,-3.038,-3.0396,-3.04,-3.0161,0,0,0,0,0,-3.0505,-3.052,-3.0469,-3.0521,-3.0515,-3.0461,-3.0464,-3.0424,-3.0405,-3.0398,-3.0368,-3.0354,-3.0362,-3.037,-3.0375,-3.0441,-3.0433,-3.0477,-3.0494,-3.0508,-3.0517,-3.0553,-3.0572,-3.0363,-3.0363,-3.0362,0,0,-3.0571,-3.0541,-3.0554,-3.0543,-3.0526,-3.0545,-3.0456,-3.0478,-3.0492,-3.0402,-3.0437,-3.0415,-3.0394,-3.0448,-3.047,-3.0434,-3.0573,-3.0518,-3.053,-3.0532,-3.0564,-3.0584,-3.0601,-3.0368,-3.0367,-3.0366,0,0,-3.07,-3.0678,-3.072,-3.0705,-3.068,-3.0644,-3.0654,-3.0615,-3.0597,-3.0631,-3.0565,-3.058,-3.0596,-3.0585,-3.0581,-3.0708,-3.0657,-3.0711,-3.0798,-3.0834,-3.085,-3.0865,-3.0912,-3.0929,-3.072,-3.0721,-3.0721,0,-3.0785,-3.0809,-3.0748,-3.0775,-3.0773,-3.0691,-3.0734,-3.0723,-3.0702,-3.0703,-3.0662,-3.0682,-3.0662,-3.0713,-3.0744,-3.0743,-3.0754,-3.0715,-3.0853,-3.0866,-3.0879,-3.0923,-3.0941,-3.0727,-3.0727,-3.0726,-3.0725,0,-3.0916,-3.0933,-3.097,-3.0951,-3.0953,-3.0988,-3.0934,-3.0943,-3.0903,-3.0872,-3.0909,-3.0882,-3.0881,-3.089,-3.085,-3.0936,-3.0914,-3.0864,-3.0793,-3.0907,-3.0947,-3.0964,-3.0737,-3.0735,-3.0733,-3.0731,0,0,-3.1117,-3.1064,-3.1079,-3.107,-3.1037,-3.105,-3.1083,-3.1081,-3.1091,-3.108,-3.1106,-3.1122,-3.1076,-3.1072,-3.1031,-3.1062,-3.1167,-3.1008,-3.1006,-3.104,-3.1261,-3.1301,-3.1321,-3.1132,-3.1135,-3.1138,-3.1264,0,-3.124,-3.1291,-3.1237,-3.13,-3.1316,-3.124,-3.1268,-3.1252,-3.1224,-3.1235,-3.1204,-3.1217,-3.1154,-3.1152,-3.1179,-3.1148,-3.121,-3.1138,-3.1159,-3.116,-3.1168,-3.1342,-3.1383,-3.1503,-3.1279,-3.1282,-3.1284,0,-3.139,-3.1385,-3.1449,-3.1414,-3.1419,-3.1445,-3.144,-3.1451,-3.1432,-3.1409,-3.1406,-3.1356,-3.1387,-3.1316,-3.1359,-3.1311,-3.1316,-3.1303,-3.1306,-3.1307,-3.123,-3.135,-3.154,-3.1559,-3.1307,-3.1306,-3.1304,0,-3.1533,-3.1542,-3.1582,-3.1577,-3.1536,-3.1556,-3.1541,-3.1518,-3.1521,-3.1517,-3.1519,-3.1519,-3.152,-3.1522,-3.1474,-3.1427,-3.1524,-3.1449,-3.1508,-3.1509,-3.1533,-3.1532,-3.1729,-3.1534,-3.1533,-3.1533,-3.1533,0,-3.1677,-3.172,-3.1646,-3.1671,-3.1717,-3.1656,-3.1704,-3.168,-3.1661,-3.1681,-3.1615,-3.1636,-3.157,-3.1585,-3.1548,-3.159,-3.159,-3.1575,-3.1565,-3.1582,-3.1584,-3.1585,-3.1577,-3.1538,-3.1537,-3.1536,-3.1535,0,-3.1845,-3.1797,-3.1836,-3.1794,-3.1784,-3.1821,-3.1785,-3.1808,-3.1775,-3.1802,-3.1804,-3.1754,-3.1768,-3.172,-3.1726,-3.1701,-3.1764,-3.1739,-3.1771,-3.1764,-3.1826,-3.1822,-3.2032,-3.2057,-3.1845,-3.1847,-3.1848,0,-3.194,-3.1971,-3.1933,-3.1941,-3.1929,-3.1943,-3.1946,-3.1887,-3.1893,-3.1874,-3.1899,-3.1907,-3.1911,-3.1936,-3.1902,-3.1906,-3.1882,-3.1956,-3.1883,-3.1899,-3.1886,-3.1885,-3.1889,-3.1971,-3.1974,-3.1976,-3.1978,0,-3.2116,-3.2091,-3.2097,-3.2095,-3.21,-3.2096,-3.2088,-3.2099,-3.2036,-3.2046,-3.2059,-3.2061,-3.2067,-3.2077,-3.2075,-3.206,-3.201,-3.2001,-3.2015,-3.2034,-3.2051,-3.2045,-3.1814,-3.1997,-3.1995,-3.1993,-3.1992,-3.1992,-3.2251,-3.2276,-3.2254,-3.2263,-3.225,-3.2244,-3.2264,-3.2234,-3.2243,-3.2243,-3.2208,-3.2228,-3.221,-3.2201,-3.2191,-3.2208,-3.2174,-3.2194,-3.22,-3.2206,-3.2218,-3.2048,-3.2207,-3.2206,-3.2206,-3.2205,-3.2205,0,-3.2425,-3.2407,-3.2416,-3.2406,-3.2415,-3.2365,-3.2353,-3.2364,-3.2382,-3.2369,-3.2374,-3.239,-3.2399,-3.2365,-3.237,-3.239,-3.2367,-3.2393,-3.2392,-3.239,-3.2247,-3.2235,-3.2412,-3.2412,-3.2412,-3.2412,-3.2412,-3.2412,-3.2517,-3.2557,-3.253,-3.2564,-3.2545,-3.2564,-3.2562,-3.2557,-3.2546,-3.2566,-3.2573,-3.2551,-3.253,-3.2533,-3.254,-3.253,-3.2536,-3.2571,-3.2553,-3.242,-3.24,-3.2381,-3.2369,-3.2572,-3.2572,-3.2695,-3.2697,-3.2697]},{"header":{"parameterUnit":"m.s-1","parameterCategory":1,"la1":30.2991,"la2":30.254,"lo1":-89.0895,"lo2":-89.0444,"dy":0.0017,"dx":0.0017,"nx":28,"ny":28,"refTime":"2025-08-25T21:00:00:Z","depth":0,"parameterNumber":3,"parameterNumberName":"V-component_of_WINDS"},"data":[0,0,0,0,0,0,0,0,0,0,0,0,0,0,0,0,0,0,0,0,0,0,0,0,0,0,0,0,0,0,0,0,0,0,0,0,0,0,0,0,0,0,0,0,0,0,0,0,0,0,0,0,0,0,0,0,0,0,-0.6239,-0.624,0,-0.629,-0.629,-0.6291,-0.6289,-0.6288,-0.6288,-0.6287,-0.634,-0.6342,-0.6345,0,0,0,0,0,0,0,0,0,0,0,0,0,-0.6142,-0.6143,-0.6239,-0.624,-0.624,-0.629,-0.629,-0.6291,-0.6289,-0.6288,-0.6288,-0.6287,-0.634,-0.6342,-0.6345,0,0,0,0,0,0,0,0,0,0,0,0,0,-0.6187,-0.6144,-0.6239,-0.6245,-0.6246,-0.6289,-0.629,-0.6291,-0.629,-0.6288,-0.6287,-0.6286,-0.6339,-0.6342,-0.6345,-0.6385,0,0,-0.6355,-0.6356,0,0,0,0,0,0,0,0,-0.6185,-0.6191,-0.6244,-0.6245,-0.6246,-0.6282,-0.6275,-0.6323,-0.629,-0.6273,-0.6287,-0.6286,-0.6322,-0.6326,-0.6338,-0.6388,-0.639,-0.6355,-0.6357,-0.6358,-0.6359,0,0,0,0,0,0,0,-0.6181,-0.6189,-0.6259,-0.6245,-0.6246,-0.6246,-0.6251,-0.6284,-0.6303,-0.6275,-0.6275,-0.628,-0.6322,-0.6335,-0.6339,-0.6391,-0.6355,-0.6358,-0.6359,-0.6361,-0.6476,-0.6478,0,0,0,0,0,0,-0.6177,-0.6186,-0.6257,-0.6261,-0.6212,-0.6249,-0.6254,-0.6272,-0.6303,-0.6306,-0.6281,-0.628,-0.633,-0.6336,-0.6341,-0.6391,-0.6358,-0.6361,-0.6363,-0.6475,-0.6477,-0.6478,0,0,0,0,0,0,-0.6175,-0.6183,-0.6255,-0.6223,-0.6232,-0.6251,-0.6271,-0.6273,-0.6286,-0.6308,-0.6311,-0.6291,-0.633,-0.6337,-0.6374,-0.6393,-0.6362,-0.6365,-0.6474,-0.6476,-0.6477,-0.6491,0,0,0,0,0,0,-0.6172,-0.6182,-0.6198,-0.6224,-0.6234,-0.6288,-0.6272,-0.6275,-0.6291,-0.629,-0.6318,-0.6321,-0.633,-0.637,-0.6377,-0.6397,-0.6368,-0.6472,-0.6475,-0.6477,-0.6489,-0.6493,-0.6497,0,0,0,0,0,-0.6168,-0.62,-0.6199,-0.6207,-0.6254,-0.6289,-0.6295,-0.6303,-0.6293,-0.6309,-0.6322,-0.632,-0.6389,-0.6374,-0.6382,-0.6403,-0.6471,-0.6474,-0.6477,-0.6488,-0.6492,-0.6497,0,0,0,0,0,0,-0.6177,-0.6204,-0.6202,-0.6243,-0.6264,-0.6288,-0.6309,-0.6308,-0.6332,-0.6331,-0.634,-0.6347,-0.6384,-0.6397,-0.6379,-0.6444,-0.6429,-0.6434,-0.6434,-0.6439,-0.6443,-0.644,-0.637,0,0,0,0,0,-0.6183,-0.6209,-0.6231,-0.6265,-0.6275,-0.629,-0.6305,-0.631,-0.6332,-0.6341,-0.6357,-0.6379,-0.6405,-0.6422,-0.6448,-0.649,-0.6497,-0.6509,-0.6512,-0.6515,-0.652,-0.6544,-0.655,-0.6487,-0.6487,-0.6487,0,0,-0.6197,-0.6215,-0.6231,-0.6267,-0.6283,-0.631,-0.6297,-0.6326,-0.6346,-0.6345,-0.6382,-0.6394,-0.6419,-0.6459,-0.6477,-0.6471,-0.6538,-0.6519,-0.6521,-0.6524,-0.6547,-0.6553,-0.6558,-0.6489,-0.6488,-0.6488,0,0,-0.6237,-0.6252,-0.6282,-0.6299,-0.6323,-0.6333,-0.634,-0.6364,-0.6373,-0.6409,-0.6409,-0.6433,-0.6478,-0.6496,-0.6511,-0.6555,-0.6555,-0.6563,-0.6584,-0.6607,-0.6612,-0.6617,-0.6634,-0.664,-0.6567,-0.6567,-0.6567,0,-0.6251,-0.6291,-0.6298,-0.6327,-0.6343,-0.6342,-0.6373,-0.6389,-0.6421,-0.6432,-0.6424,-0.648,-0.6497,-0.6541,-0.6552,-0.6564,-0.6573,-0.6562,-0.6611,-0.6615,-0.662,-0.6636,-0.6643,-0.6568,-0.6568,-0.6568,-0.6568,0,-0.6308,-0.6336,-0.6358,-0.6388,-0.6406,-0.6436,-0.6448,-0.6465,-0.6468,-0.6478,-0.6516,-0.6535,-0.6564,-0.6575,-0.6578,-0.662,-0.6615,-0.6608,-0.6594,-0.6627,-0.6642,-0.6649,-0.657,-0.6569,-0.6569,-0.6569,0,0,-0.6357,-0.6389,-0.6397,-0.6411,-0.6438,-0.6459,-0.6489,-0.6517,-0.6533,-0.6554,-0.658,-0.6617,-0.6611,-0.6628,-0.6633,-0.6653,-0.6688,-0.6644,-0.6645,-0.6653,-0.6737,-0.6743,-0.6751,-0.6687,-0.6688,-0.6689,-0.6736,0,-0.64,-0.6453,-0.6459,-0.6506,-0.6532,-0.6531,-0.6557,-0.6576,-0.6586,-0.6609,-0.662,-0.6648,-0.6637,-0.6647,-0.6667,-0.668,-0.6706,-0.6676,-0.6712,-0.6714,-0.6708,-0.6759,-0.6765,-0.6808,-0.6742,-0.6743,-0.6744,0,-0.6459,-0.6481,-0.6531,-0.6553,-0.6565,-0.6588,-0.6614,-0.6636,-0.6658,-0.6664,-0.6682,-0.6684,-0.6715,-0.6697,-0.6741,-0.6721,-0.6735,-0.6744,-0.6746,-0.6751,-0.6732,-0.6767,-0.6822,-0.6829,-0.6753,-0.6752,-0.6752,0,-0.6491,-0.6533,-0.6569,-0.658,-0.6607,-0.6624,-0.6636,-0.6656,-0.6672,-0.6695,-0.6706,-0.6732,-0.6747,-0.6768,-0.6777,-0.6763,-0.682,-0.6803,-0.6827,-0.6826,-0.6841,-0.684,-0.6901,-0.6847,-0.6846,-0.6846,-0.6846,0,-0.654,-0.6571,-0.6584,-0.6606,-0.664,-0.6646,-0.668,-0.6691,-0.6709,-0.6734,-0.6733,-0.6756,-0.6766,-0.679,-0.6797,-0.6832,-0.6839,-0.6845,-0.6847,-0.6846,-0.6846,-0.6858,-0.6856,-0.6848,-0.6848,-0.6847,-0.6847,0,-0.6583,-0.6592,-0.6631,-0.6653,-0.6659,-0.6683,-0.6702,-0.6724,-0.6732,-0.6763,-0.6771,-0.6785,-0.6814,-0.6824,-0.6859,-0.6864,-0.6905,-0.6904,-0.6898,-0.6899,-0.6923,-0.6921,-0.6995,-0.7005,-0.6943,-0.6943,-0.6944,0,-0.6614,-0.6638,-0.6662,-0.6678,-0.6691,-0.6716,-0.6733,-0.674,-0.6757,-0.6783,-0.6802,-0.683,-0.6853,-0.6899,-0.6913,-0.6939,-0.694,-0.6964,-0.6944,-0.6943,-0.6942,-0.6941,-0.6944,-0.6968,-0.6969,-0.6969,-0.697,0,-0.667,-0.6674,-0.6698,-0.6723,-0.6743,-0.6764,-0.6784,-0.6797,-0.6806,-0.6826,-0.6855,-0.6873,-0.6908,-0.6937,-0.6964,-0.6976,-0.6975,-0.6975,-0.6983,-0.6983,-0.698,-0.6984,-0.691,-0.6974,-0.6974,-0.6973,-0.6973,-0.6973,-0.671,-0.6731,-0.6751,-0.6778,-0.6793,-0.6812,-0.6833,-0.6844,-0.6868,-0.6897,-0.6899,-0.6931,-0.6951,-0.6988,-0.7001,-0.7026,-0.702,-0.703,-0.7033,-0.7036,-0.7038,-0.6974,-0.7031,-0.7031,-0.7031,-0.7031,-0.7031,0,-0.6767,-0.6779,-0.6804,-0.6832,-0.6853,-0.6848,-0.6869,-0.6888,-0.6915,-0.6934,-0.6957,-0.699,-0.7017,-0.7033,-0.706,-0.7077,-0.7077,-0.7084,-0.7084,-0.7087,-0.7042,-0.7034,-0.7084,-0.7084,-0.7084,-0.7084,-0.7084,-0.7084,-0.6799,-0.6835,-0.6841,-0.6884,-0.6896,-0.6927,-0.694,-0.6957,-0.6972,-0.7009,-0.7032,-0.7041,-0.7059,-0.7087,-0.7112,-0.7116,-0.7127,-0.7135,-0.7138,-0.7096,-0.709,-0.7085,-0.7078,-0.7136,-0.7137,-0.7182,-0.7182,-0.7183]}]]